SCP
0 0 0 0 0 0 0 0 0 0 0 0 0 0 0 0 0 0 0 0 0 0 0 0 0 0 0 0 0 0 0 0 0 0 0 0 0 0 0 0 0 0 0
0 0 0 0 0 0 0 0 0 0 0 0 0 0 0 0 0 0 0 0 0 0 0 0 0 0 0 0 0 0 0 0 0 0 0 0 0 0 0 0 0 0 0
0 0 0 0 0 0 0 0 0 0 0 0 0 0 0 0 0 0 0 0 0 0 0 0 0 0 0 0 0 0 0 0 0 0 0 0 0 0 0 0 0 0 0
0 0 0 0 0 0 0 0 0 0 0 0 0 0 0 0 0 0 0 0 0 0 0 0 0 0 0 0 0 0 0 0 0 0 0 0 0 0 0 0 0 0 0
0 0 0 0 0 0 0 0 0 0 0 0 0 0 0 0 0 0 0 0 0 0 0 0 0 0 0 0 0 0 0 0 0 0 0 0 0 0 0 0 0 0 0
0 0 0 0 0 0 0 0 0 0 0 0 0 0 0 0 0 0 0 0 0 0 0 0 0 0 0 0 0 0 0 0 0 0 0 0 0 0 0 0 0 0 0
0 0 0 0 0 0 0 0 0 0 0 0 0 0 0 0 0 0 0 0 0 0 0 0 0 0 0 0 0 0 0 0 0 0 0 0 0 0 0 0 0 0 0
0 0 0 0 0 0 0 0 0 0 0 0 0 0 0 0 0 0 0 0 0 0 0 0 0 0 0 0 0 0 0 0 0 0 0 0 0 0 0 0 0 0 0
0 0 0 0 0 0 0 0 0 0 0 0 0 0 0 0 0 0 0 0 0 0 0 0 0 0 0 0 0 0 0 0 0 0 0 0 0 0 0 0 0 0 0
0 0 0 0 0 0 0 0 0 0 0 0 0 0 0 0 0 0 0 0 0 0 0 0 0 0 0 0 0 0 0 0 0 0 0 0 0 0 0 0 0 0 0
0 0 0 0 0 0 0 0 0 0 0 0 0 0 0 0 0 0 0 0 0 0 0 0 0 0 0 0 0 0 0 0 0 0 0 0 0 0 0 0 0 0 0
0 0 0 0 0 0 0 0 0 0 0 0 0 0 0 0 0 0 0 0 0 0 0 0 0 0 0 0 0 0 0 0 0 0 0 0 0 0 0 0 0 0 0
0 0 0 0 0 0 0 0 0 0 0 0 0 0 0 0 0 0 0 0 0 0 0 0 0 0 0 0 0 0 0 0 0 0 0 0 0 0 0 0 0 0 0
0 0 0 0 0 0 0 0 0 0 0 0 0 0 0 0 0 0 0 0 0 0 0 0 0 0 0 0 0 0 0 0 0 0 0 0 0 0 0 0 0 0 0
0 0 0 0 0 0 0 0 0 0 0 0 0 0 0 0 0 0 0 0 0 0 0 0 0 0 0 0 0 0 0 0 0 0 0 0 0 0 0 0 0 0 0
0 0 0 0 0 0 0 0 0 0 0 0 0 0 0 0 0 0 0 0 0 0 0 0 0 0 0 0 0 0 0 0 0 0 0 0 0 0 0 0 0 0 0
0 0 0 0 0 0 0 0 0 0 0 0 0 0 0 0 0 0 0 0 0 0 0 0 0 0 0 0 0 0 0 0 0 0 0 0 0 0 0 0 0 0 0
0 0 0 0 0 0 0 0 0 0 0 0 0 0 0 0 0 0 0 0 0 0 0 0 0 0 0 0 0 0 0 0 0 0 0 0 0 0 0 0 0 0 0
0 0 0 0 0 0 0 0 0 0 0 0 0 0 0 0 0 0 0 0 0 0 0 0 0 0 0 0 0 0 0 0 0 0 0 0 0 0 0 0 0 0 0
0 0 0 0 0 0 0 0 0 0 0 0 0 0 0 0 0 0 0 0 0 0 0 0 0 0 0 0 0 0 0 0 0 0 0 0 0 0 0 0 0 0 0
0 0 0 0 0 0 0 0 0 0 0 0 0 0 0 0 0 0 0 0 0 0 0 0 0 0 0 0 0 0 0 0 0 0 0 0 0 0 0 0 0 0 0
0 0 0 0 0 0 0 0 0 0 0 0 0 0 0 0 0 0 0 0 0 0 0 0 0 0 0 0 0 0 0 0 0 0 0 0 0 0 0 0 0 0 0
0 0 0 0 0 0 0 0 0 0 0 0 0 0 0 0 0 0 0 0 0 0 0 0 0 0 0 0 0 0 0 0 0 0 0 0 0 0 0 0 0 0 0
0 0 0 0 0 0 0 0 0 0 0 0 0 0 0 0 0 0 0 0 0 0 0 0 0 0 0 0 0 0 0 0 0 0 0 0 0 0 0 0 0 0 0
0 0 0 0 0 0 0 0 0 0 0 0 0 0 0 0 0 0 0 0 0 0 0 0 0 0 0 0 0 0 0 0 0 0 0 0 0 0 0 0 0 0 0
0 0 0 0 0 0 0 0 0 0 0 0 0 0 0 0 0 0 0 0 0 0 0 0 0 0 0 0 0 0 0 0 0 0 0 0 0 0 0 0 0 0 0
Wind_Speed
1 0 1 1 1 0 0 0 0 1 1 1 1 2 3 3 3 3 2 7 8 9 10 11 11 11 11 11 11 11 11 11 11 10 10 10 10 10 10 10 10 9 9
1 1 1 1 1 1 1 1 1 1 1 1 1 2 2 3 3 3 3 4 7 8 9 10 11 11 12 12 12 11 12 12 11 11 10 10 10 10 10 10 11 10 10
1 1 1 1 1 1 1 1 1 0 1 1 1 1 2 2 3 3 3 2 3 6 8 9 10 11 12 12 12 13 12 12 11 11 10 10 10 10 10 10 10 10 10
1 1 1 1 1 1 1 1 1 0 1 1 1 1 1 1 2 3 2 3 2 3 4 7 8 8 10 11 12 12 12 13 13 13 12 12 12 11 11 11 11 10 10
1 1 1 1 1 1 1 1 1 1 1 1 1 1 1 1 2 2 2 3 2 2 2 3 5 5 8 9 9 9 10 11 13 13 13 13 13 12 11 11 11 11 10
0 1 0 1 1 1 1 1 1 1 1 1 0 1 0 1 1 1 2 1 1 2 2 2 2 3 6 6 7 9 9 9 10 11 12 11 10 10 9 9 9 9 9
1 1 0 1 0 0 1 1 1 1 1 1 1 1 1 1 0 1 1 1 1 2 1 2 2 2 2 4 5 7 8 8 9 9 9 9 9 9 9 10 9 8 8
1 0 1 0 0 0 0 1 1 1 1 1 2 1 1 2 1 1 0 1 1 1 1 1 1 1 2 1 1 3 6 6 7 7 6 7 7 7 7 8 8 8 8
1 0 0 0 1 1 1 1 2 2 2 1 1 2 2 1 1 2 2 1 1 0 0 0 0 1 1 1 2 2 3 3 4 5 4 4 5 6 6 7 7 7 7
2 1 1 0 0 0 1 1 1 2 2 1 1 1 2 2 2 0 1 2 2 1 1 1 1 1 1 1 1 2 1 1 1 2 1 2 3 4 4 5 6 6 6
2 2 1 1 1 1 1 1 1 1 1 2 2 1 1 1 2 2 1 1 2 2 2 2 1 2 1 1 1 3 5 4 3 2 1 1 1 1 1 2 3 4 3
2 2 2 1 1 1 1 1 1 0 1 1 1 1 2 2 2 2 2 1 1 1 3 3 2 2 2 2 3 6 6 5 5 5 4 3 2 2 2 1 1 1 1
1 2 2 1 1 1 1 1 1 1 0 1 1 1 1 2 2 2 3 2 1 1 2 3 3 3 3 3 3 7 7 8 7 7 7 7 6 6 6 5 5 5 4
1 1 1 1 1 1 1 1 1 1 1 0 0 0 0 0 1 2 3 3 2 1 2 2 2 4 3 4 6 7 6 11 10 9 9 9 9 9 9 9 9 8 7
0 1 1 2 2 2 2 2 2 2 2 1 1 1 1 1 1 1 2 2 3 2 1 1 2 3 3 4 6 5 6 11 12 11 11 11 10 10 10 10 10 9 9
1 1 2 2 3 3 3 3 2 2 3 3 2 3 2 2 1 1 1 1 1 2 2 2 2 2 3 4 6 5 6 11 12 12 12 12 12 12 12 11 11 10 10
2 2 2 2 3 3 3 3 3 3 4 3 3 4 3 2 2 2 2 2 2 3 4 2 2 3 4 4 4 4 5 5 7 12 12 12 12 12 12 12 11 11 11
2 2 3 3 3 3 3 4 4 4 4 4 3 4 3 3 3 2 2 3 3 3 4 5 2 2 3 3 4 4 5 5 6 10 11 12 12 12 12 12 12 12 12
3 3 3 3 3 3 4 4 4 4 4 4 3 3 3 3 3 3 3 3 3 4 4 5 3 2 2 2 3 4 5 4 5 6 9 11 11 12 11 11 11 11 11
3 3 3 3 3 3 3 3 4 4 4 4 4 3 3 3 3 3 4 4 4 5 5 5 4 3 2 2 2 3 3 3 3 4 6 7 9 11 11 11 11 11 10
3 3 3 3 3 3 3 3 3 4 4 4 4 4 4 5 5 4 4 4 5 5 4 4 4 3 2 2 2 2 3 2 3 3 3 3 4 4 5 7 9 10 10
3 4 4 3 3 3 4 6 5 4 4 4 4 4 4 5 6 7 8 7 6 5 5 4 3 3 3 2 2 3 3 2 2 1 2 2 2 3 3 3 6 7 8
3 4 3 3 3 3 5 6 7 5 5 4 4 4 4 4 5 5 7 8 7 7 5 4 4 3 3 3 4 4 3 2 2 1 1 2 1 2 2 2 4 5 5
3 3 3 3 3 3 6 7 7 5 5 5 4 4 4 4 4 4 5 6 5 5 4 2 2 2 2 3 4 4 4 3 2 2 1 1 1 1 1 1 2 3 3
3 3 2 3 3 3 5 6 6 4 4 4 4 4 3 3 4 5 5 5 5 4 5 7 6 5 6 6 5 4 4 3 2 1 1 1 0 0 0 1 1 2 2
3 3 3 2 2 2 3 5 5 3 3 3 3 4 5 4 4 4 4 4 4 2 3 4 5 6 5 5 5 3 3 3 2 1 1 1 1 0 0 0 1 1 1
Wind_Direction
247 273 271 266 264 252 218 194 213 251 255 262 234 207 210 212 210 210 219 223 221 216 213 212 210 209 209 208 208 208 208 207 206 205 209 209 208 208 209 211 210 210 210
203 223 255 258 260 240 228 218 224 242 262 255 263 239 226 218 213 211 218 227 226 222 220 218 216 214 216 216 215 215 216 215 213 210 212 214 215 215 217 219 219 219 219
197 190 229 264 261 230 208 200 232 245 251 240 253 242 227 220 217 217 219 225 232 229 228 226 226 223 222 222 221 218 219 218 216 213 212 216 219 221 222 223 224 223 224
187 169 207 263 263 207 180 185 196 229 256 247 264 271 249 229 223 219 217 221 225 231 234 231 229 229 229 227 224 222 222 222 221 218 217 220 223 225 226 227 228 226 226
154 166 208 255 244 200 198 216 186 186 215 236 251 257 249 238 235 226 217 216 216 222 230 243 237 236 234 233 231 227 225 225 224 224 223 223 226 228 228 231 231 229 228
104 153 209 264 217 181 212 205 198 191 208 224 300 344 330 259 234 226 222 208 203 209 219 235 246 253 247 244 242 238 233 227 221 220 223 222 219 219 218 221 225 226 227
56 91 19 317 249 204 220 199 172 174 196 152 107 10 2 24 154 236 221 196 210 213 208 224 243 255 263 266 259 250 240 231 224 220 216 216 218 217 216 217 218 223 228
357 124 155 301 261 246 261 205 176 174 205 171 156 142 344 358 9 350 190 185 216 212 211 229 240 250 262 268 295 263 249 243 234 223 214 213 216 215 213 211 214 221 224
350 360 105 231 253 221 249 245 202 195 215 218 186 167 169 222 325 11 29 62 81 123 208 286 338 272 263 275 285 306 280 263 250 244 233 224 219 221 223 223 224 225 225
359 359 20 137 243 242 266 268 218 213 196 210 217 216 199 170 175 336 20 39 52 48 23 19 2 357 356 6 21 18 355 349 290 274 250 225 219 225 227 233 236 236 233
357 356 11 22 352 313 298 297 281 220 203 197 198 195 183 174 182 184 213 34 44 38 38 29 25 29 33 41 46 53 54 54 60 59 60 109 146 162 204 253 255 253 245
355 359 4 357 337 328 319 304 297 265 222 208 205 200 186 180 184 178 187 175 82 37 41 38 36 37 40 40 57 64 64 64 66 60 53 51 53 57 59 26 339 311 284
347 343 354 345 330 317 325 340 359 350 310 231 220 217 209 212 181 160 155 163 142 62 44 43 34 35 46 41 47 58 59 65 65 63 57 53 53 52 52 50 54 54 52
269 339 9 8 357 357 3 19 24 2 30 25 331 191 118 184 161 162 160 155 146 101 61 43 34 37 46 49 50 51 58 64 64 62 61 60 60 62 65 63 57 53 51
130 34 36 31 19 24 26 45 44 27 40 37 32 54 63 41 97 133 152 166 164 162 119 58 44 31 44 58 54 59 63 68 69 67 65 64 65 64 63 64 62 58 54
75 63 54 46 41 37 36 47 45 38 55 41 49 65 59 47 67 88 141 146 152 151 129 85 65 50 51 66 65 64 67 70 68 69 68 68 67 65 63 63 61 59 57
70 66 63 63 60 49 45 54 49 50 60 49 47 63 61 60 68 59 79 94 98 114 123 101 71 63 61 68 64 67 69 65 67 69 71 72 69 67 65 63 61 61 60
70 70 71 69 66 59 55 61 56 53 62 58 48 58 56 70 68 64 78 89 96 101 126 125 93 69 67 79 77 75 70 72 70 69 71 71 69 67 65 64 63 61 59
74 68 74 74 68 65 65 65 67 64 65 63 59 64 63 77 75 72 81 87 93 99 103 120 110 85 77 87 84 76 70 62 72 72 69 67 67 67 66 64 62 60 58
87 76 74 77 81 78 71 71 72 68 62 57 54 57 62 75 88 92 91 92 101 103 105 112 112 102 95 91 98 94 79 58 61 60 61 64 65 65 63 62 63 63 61
91 86 80 68 66 76 74 78 77 73 62 55 49 47 56 70 75 89 102 106 112 113 114 115 116 112 114 126 122 121 106 89 62 51 60 55 52 53 51 53 59 62 63
90 85 78 75 65 64 80 86 89 77 65 59 52 41 50 57 69 78 88 96 108 125 133 132 132 142 150 145 130 136 131 121 98 46 65 56 47 52 41 48 51 59 63
102 92 85 81 74 69 87 91 87 86 72 61 56 48 51 53 63 80 80 77 75 83 106 142 146 160 165 169 155 144 135 120 108 95 97 72 45 49 36 49 52 57 62
114 105 94 89 85 80 91 96 94 86 76 60 52 56 63 50 60 87 92 80 69 60 67 97 130 151 153 162 164 151 139 113 91 80 80 94 51 28 20 24 36 54 61
118 109 104 97 93 82 93 106 105 92 79 62 50 51 62 62 62 91 100 95 78 58 64 72 80 88 97 106 123 124 121 122 112 100 52 87 76 1 352 358 9 23 32
128 121 101 89 99 94 100 114 118 110 93 75 56 47 52 68 74 94 109 110 99 73 67 66 67 71 82 92 95 116 141 140 124 138 132 129 111 75 80 8 346 351 5